KB1WCR Weather Reports


time (UTC)temp
F
wind
direction
speed
knots
gust
knots
rain 1hr
in
rain 24hr
in
rain mn
in
humidity
%
barometer
mb
20260506123940 61 86 1.7 2.6 0.00 0.00 0.00 82 1008.7
20260506123438 60 235 0.9 1.7 0.00 0.00 0.00 84 1008.7
20260506122935 59 242 0.9 0.9 0.00 0.00 0.00 85 1008.7
20260506122431 59 240 0.0 0.9 0.00 0.00 0.00 86 1008.7
20260506121930 58 174 0.9 0.9 0.00 0.00 0.00 88 1008.7
20260506121426 58 225 0.9 1.7 0.00 0.00 0.00 86 1008.9
20260506120923 57 250 0.0 0.0 0.00 0.00 0.00 88 1008.9
20260506120421 57 294 0.0 0.0 0.00 0.00 0.00 89 1008.8
20260506115918 57 287 0.0 0.0 0.00 0.00 0.00 89 1009.1
20260506115416 57 332 0.0 0.0 0.00 0.00 0.00 89 1008.9
20260506114914 56 301 0.0 0.0 0.00 0.00 0.00 89 1009.0
20260506114411 56 22 0.9 0.9 0.00 0.00 0.00 89 1009.1
20260506113910 55 292 0.0 0.0 0.00 0.00 0.00 89 1008.9
20260506113407 55 251 0.0 0.0 0.00 0.00 0.00 90 1009.1
20260506112903 55 301 0.0 0.0 0.00 0.00 0.00 90 1009.4
20260506112401 55 284 0.0 0.0 0.00 0.00 0.00 90 1009.5
20260506111858 54 339 0.0 0.0 0.00 0.00 0.00 91 1009.3
20260506111356 54 311 0.9 0.9 0.00 0.00 0.00 90 1009.2
20260506110853 54 223 0.0 0.0 0.00 0.00 0.00 91 1009.7
20260506110350 54 286 0.0 0.0 0.00 0.00 0.00 91 1009.5
20260506105847 54 342 0.9 0.9 0.00 0.00 0.00 91 1009.5
20260506105343 53 281 0.0 0.0 0.00 0.00 0.00 92 1009.5
20260506104841 53 287 0.0 0.0 0.00 0.00 0.00 92 1009.4
20260506104339 53 285 0.0 0.0 0.00 0.00 0.00 92 1009.5
20260506103836 53 310 0.0 0.0 0.00 0.00 0.00 92 1009.3
20260506103334 53 292 0.0 0.0 0.00 0.00 0.00 92 1009.4
20260506102831 53 275 0.0 0.0 0.00 0.00 0.00 92 1009.1
20260506102329 52 296 0.0 0.0 0.00 0.00 0.00 93 1009.0
20260506101826 52 313 0.0 0.0 0.00 0.00 0.00 93 1008.9
20260506101321 52 229 0.0 0.0 0.00 0.00 0.00 92 1009.2
20260506100820 52 289 0.0 0.0 0.00 0.00 0.00 93 1009.3
20260506100318 51 294 0.0 0.0 0.00 0.00 0.00 94 1009.1
20260506095816 51 296 0.0 0.0 0.00 0.00 0.00 94 1008.9
20260506095313 51 287 0.0 0.0 0.00 0.00 0.00 94 1008.8
20260506094809 51 280 0.0 0.0 0.00 0.00 0.00 94 1009.1
20260506094308 51 290 0.0 0.0 0.00 0.00 0.00 94 1009.2
20260506093806 51 296 0.0 0.0 0.00 0.00 0.00 93 1008.9
20260506093302 51 316 0.0 0.0 0.00 0.00 0.00 93 1008.8
20260506092801 51 301 0.0 0.0 0.00 0.00 0.00 93 1009.0
20260506092258 52 302 0.0 0.0 0.00 0.00 0.00 92 1008.9
20260506091755 52 311 0.0 0.0 0.00 0.00 0.00 92 1009.1
20260506091253 52 294 0.0 0.0 0.00 0.00 0.00 92 1009.0
20260506090751 52 291 0.0 0.0 0.00 0.00 0.00 92 1009.0
20260506090247 52 298 0.0 0.0 0.00 0.00 0.00 92 1008.8
20260506085744 52 281 0.0 0.0 0.00 0.00 0.00 91 1008.7
20260506085240 52 289 0.0 0.0 0.00 0.00 0.00 91 1008.8
20260506084737 53 291 0.0 0.0 0.00 0.00 0.00 91 1008.8
20260506084233 53 291 0.0 0.0 0.00 0.00 0.00 90 1008.7
20260506083730 53 284 0.0 0.0 0.00 0.00 0.00 89 1008.5
20260506083228 54 278 0.0 0.0 0.00 0.00 0.00 89 1008.6
20260506082725 54 215 0.0 0.0 0.00 0.00 0.00 89 1008.8
20260506082221 54 279 0.0 0.0 0.00 0.00 0.00 89 1008.5
20260506081719 54 261 0.0 0.0 0.00 0.00 0.00 90 1008.4
20260506081216 53 8 0.9 1.7 0.00 0.00 0.00 90 1008.6
20260506080714 54 306 0.0 0.0 0.00 0.00 0.00 90 1008.7
20260506080210 54 275 0.0 0.0 0.00 0.00 0.00 89 1008.7
20260506073154 54 319 0.0 0.0 0.00 0.00 0.00 88 1008.7
20260506072650 55 285 0.0 0.0 0.00 0.00 0.00 88 1008.5
20260506072148 55 321 0.0 0.0 0.00 0.00 0.00 88 1008.4
20260506071646 55 300 0.0 0.0 0.00 0.00 0.00 87 1008.5
20260506071143 55 329 0.0 0.0 0.00 0.00 0.00 87 1008.4
20260506070640 55 31 0.0 0.0 0.00 0.00 0.00 87 1008.3
20260506070137 55 294 0.0 0.0 0.00 0.00 0.00 87 1008.2
20260506062114 53 260 0.0 0.0 0.00 0.00 0.00 91 1008.0
20260506061610 53 290 0.0 0.0 0.00 0.00 0.00 91 1007.9
20260506061108 53 314 0.0 0.0 0.00 0.00 0.00 91 1008.0
20260506060606 53 298 0.0 0.0 0.00 0.00 0.00 91 1008.0
20260506051035 55 357 0.9 0.9 0.00 0.00 0.00 88 1007.9
20260506050533 54 325 0.0 0.0 0.00 0.00 0.00 88 1008.4
20260506045023 54 345 0.9 0.9 0.00 0.00 0.00 88 1008.1
20260506044521 54 5 0.0 0.9 0.00 0.00 0.00 88 1008.2
20260506044018 54 292 0.0 0.0 0.00 0.00 0.00 87 1008.1
20260506043515 55 273 0.0 0.0 0.00 0.00 0.00 87 1008.0
20260506043013 55 316 0.0 0.0 0.00 0.00 0.00 86 1008.0
20260506042512 55 258 0.0 0.0 0.00 0.00 0.00 87 1008.0
20260506042010 55 313 0.0 0.0 0.00 0.00 0.00 86 1008.1
20260506041508 55 301 0.0 0.0 0.00 0.00 0.00 85 1008.1
20260506041005 56 329 0.0 0.0 0.00 0.00 0.00 86 1007.9
20260506040503 56 336 0.0 0.9 0.00 0.00 0.00 84 1008.1
20260506035958 57 211 0.9 0.9 0.00 0.00 0.00 83 1008.2
20260506035455 57 270 0.0 0.0 0.00 0.00 0.00 83 1008.2
20260506034951 57 251 0.0 0.0 0.00 0.00 0.00 82 1008.2
20260506034449 57 321 0.9 0.9 0.00 0.00 0.00 82 1008.0
20260506033946 58 280 0.0 0.0 0.00 0.00 0.00 83 1007.9
20260506033444 58 335 0.9 0.9 0.00 0.00 0.00 81 1007.9
20260506032940 58 248 0.0 0.0 0.00 0.00 0.00 82 1008.0
20260506032437 58 251 0.0 0.0 0.00 0.00 0.00 82 1007.9
20260506031934 57 286 0.0 0.0 0.00 0.00 0.00 83 1007.8
20260506031431 57 282 0.0 0.0 0.00 0.00 0.00 84 1007.9
20260506030929 58 289 0.0 0.0 0.00 0.00 0.00 84 1007.8
20260506030427 58 342 0.0 0.0 0.00 0.00 0.00 84 1007.9
20260506025923 58 291 0.0 0.0 0.00 0.00 0.00 83 1007.7
20260506025420 59 286 0.0 0.0 0.00 0.00 0.00 82 1007.8
20260506024917 59 323 0.0 0.0 0.00 0.00 0.00 81 1007.7
20260506024414 60 271 0.0 0.0 0.00 0.00 0.00 80 1007.9
20260506023910 60 289 0.0 0.0 0.00 0.00 0.00 78 1008.1
20260506023407 61 297 0.0 0.0 0.00 0.00 0.00 77 1008.0
20260506022903 61 256 0.0 0.0 0.00 0.00 0.00 77 1008.1
20260506022401 61 220 0.0 0.0 0.00 0.00 0.00 77 1008.2
20260506021859 61 220 0.0 0.0 0.00 0.00 0.00 76 1008.0
20260506021356 62 259 0.0 0.0 0.00 0.00 0.00 76 1008.4
20260506020852 62 258 0.0 0.0 0.00 0.00 0.00 77 1008.4
20260506020351 62 250 0.0 0.0 0.00 0.00 0.00 76 1008.0
20260506015848 63 243 0.0 0.0 0.00 0.00 0.00 75 1007.9
20260506015345 62 259 0.0 0.0 0.00 0.00 0.00 74 1008.2
20260506014842 62 257 0.0 0.0 0.00 0.00 0.00 74 1008.3
20260506014338 63 123 0.0 0.0 0.00 0.00 0.00 75 1008.2
20260506013835 63 248 0.0 0.0 0.00 0.00 0.00 74 1008.2
20260506013333 63 248 0.0 0.0 0.00 0.00 0.00 75 1008.2
20260506012829 63 248 0.0 0.0 0.00 0.00 0.00 73 1008.4
20260506012326 63 248 0.0 0.0 0.00 0.00 0.00 74 1008.3
20260506011823 63 248 0.0 0.0 0.00 0.00 0.00 76 1008.2
20260506011320 63 248 0.0 0.0 0.00 0.00 0.00 74 1008.3
20260506010817 63 248 0.0 0.0 0.00 0.00 0.00 74 1008.1
20260506010315 63 248 0.0 0.9 0.00 0.00 0.00 74 1008.1
20260506005812 64 216 0.0 0.0 0.00 0.00 0.00 73 1007.9
20260506005309 64 336 0.0 0.0 0.00 0.00 0.00 73 1007.9
20260506004805 64 52 0.9 0.9 0.00 0.00 0.00 72 1007.8
20260506004303 64 268 0.9 0.9 0.00 0.00 0.00 72 1007.9
20260506003759 64 291 0.0 0.0 0.00 0.00 0.00 74 1007.9
20260506003256 65 285 0.0 0.0 0.00 0.00 0.00 71 1007.8
20260506002751 65 273 0.0 0.0 0.00 0.00 0.00 71 1007.9
20260506002247 66 276 0.0 0.0 0.00 0.00 0.00 71 1007.6
20260506001743 66 270 2.6 2.6 0.00 0.00 0.00 71 1007.5
20260506001241 66 292 0.0 0.9 0.00 0.00 0.00 70 1007.0
20260506000738 66 246 1.7 1.7 0.00 0.00 0.00 69 1007.0
20260506000235 66 223 0.9 1.7 0.00 0.00 0.00 71 1006.7
20260505235732 66 172 0.9 0.9 0.00 0.00 0.00 73 1006.1
20260505235230 67 321 0.0 0.0 0.00 0.00 0.00 73 1006.2
20260505234726 67 235 0.0 0.9 0.00 0.00 0.00 72 1006.4
20260505234224 68 218 0.9 0.9 0.00 0.00 0.00 71 1005.8
20260505233720 69 289 0.0 0.0 0.00 0.00 0.00 67 1005.9
20260505233219 69 296 0.9 1.7 0.00 0.00 0.00 65 1005.9
20260505232715 69 321 0.9 0.9 0.00 0.00 0.00 65 1006.2
20260505232213 69 280 2.6 2.6 0.00 0.00 0.00 65 1006.3
20260505231709 69 292 0.0 0.9 0.00 0.00 0.00 64 1006.1
20260505231209 70 271 1.7 2.6 0.00 0.00 0.00 64 1006.5
20260505230706 70 281 7.8 8.7 0.00 0.00 0.00 63 1006.6
20260505230202 70 291 5.2 7.0 0.00 0.00 0.00 62 1006.5
20260505225659 68 288 6.1 9.6 0.00 0.00 0.00 63 1006.3
20260505225156 68 216 2.6 5.2 0.00 0.00 0.00 63 1006.3
20260505224651 68 222 3.5 3.5 0.00 0.00 0.00 62 1006.5
20260505224149 68 229 5.2 6.1 0.00 0.00 0.00 61 1004.7
20260505223646 68 300 2.6 2.6 0.00 0.00 0.00 61 1004.3
20260505223142 68 229 2.6 3.5 0.00 0.00 0.00 61 1004.2
20260505222633 69 236 6.1 8.7 0.00 0.00 0.00 60 1004.3
20260505222129 69 211 2.6 5.2 0.00 0.00 0.00 60 1004.1
20260505221626 69 187 6.1 8.7 0.00 0.00 0.00 59 1004.1
20260505221123 69 187 2.6 2.6 0.00 0.00 0.00 60 1004.1
20260505220621 70 237 2.6 3.5 0.00 0.00 0.00 59 1004.1
20260505220118 70 126 3.5 7.8 0.00 0.00 0.00 58 1004.3
20260505215616 70 210 1.7 3.5 0.00 0.00 0.00 59 1004.0
20260505215114 70 158 2.6 3.5 0.00 0.00 0.00 59 1004.0
20260505214612 70 167 0.9 1.7 0.00 0.00 0.00 59 1003.8
20260505214108 71 223 6.1 8.7 0.00 0.00 0.00 58 1004.0
20260505213606 72 268 0.9 0.9 0.00 0.00 0.00 56 1003.8
20260505213102 72 144 5.2 7.0 0.00 0.00 0.00 55 1003.7
20260505212558 72 204 5.2 7.0 0.00 0.00 0.00 55 1003.8
20260505212056 72 186 6.1 8.7 0.00 0.00 0.00 55 1003.6
20260505211553 73 201 5.2 7.0 0.00 0.00 0.00 55 1003.5
20260505211050 72 190 4.3 5.2 0.00 0.00 0.00 55 1003.2
20260505210546 73 208 3.5 5.2 0.00 0.00 0.00 54 1003.5
20260505210044 73 204 2.6 3.5 0.00 0.00 0.00 55 1003.5
20260505205541 73 241 0.0 0.9 0.00 0.00 0.00 55 1003.5
20260505205038 74 221 3.5 5.2 0.00 0.00 0.00 55 1003.4
20260505204536 75 28 3.5 5.2 0.00 0.00 0.00 53 1003.5
20260505204033 74 244 2.6 2.6 0.00 0.00 0.00 54 1003.4
20260505203529 74 215 5.2 7.0 0.00 0.00 0.00 55 1003.6
20260505203027 74 210 2.6 2.6 0.00 0.00 0.00 53 1003.7
20260505202523 74 198 5.2 9.6 0.00 0.00 0.00 54 1003.7
20260505202018 74 333 4.3 7.0 0.00 0.00 0.00 54 1003.6
20260505201516 74 114 1.7 2.6 0.00 0.00 0.00 57 1003.5
20260505201013 74 220 3.5 6.1 0.00 0.00 0.00 56 1003.7
20260505200511 73 211 6.1 8.7 0.00 0.00 0.00 55 1003.9
20260505200008 74 145 5.2 13.0 0.00 0.00 0.00 55 1003.8
20260505195504 75 204 5.2 7.0 0.00 0.00 0.00 54 1003.9
20260505195001 74 174 6.1 7.8 0.00 0.00 0.00 54 1003.9
20260505194459 75 237 7.0 9.6 0.00 0.00 0.00 53 1004.1
20260505193958 75 238 2.6 5.2 0.00 0.00 0.00 53 1004.1
20260505193456 76 191 7.8 13.0 0.00 0.00 0.00 51 1004.2
20260505192953 76 187 3.5 5.2 0.00 0.00 0.00 51 1004.0
20260505192452 76 222 3.5 3.5 0.00 0.00 0.00 52 1004.0
20260505191949 76 111 4.3 6.1 0.00 0.00 0.00 51 1004.3
20260505191448 76 232 7.8 9.6 0.00 0.00 0.00 50 1004.3
20260505190944 77 147 6.1 7.8 0.00 0.00 0.00 50 1004.4
20260505190439 78 252 7.0 9.6 0.00 0.00 0.00 50 1004.6
20260505185935 77 212 2.6 2.6 0.00 0.00 0.00 53 1004.6
20260505185433 77 271 5.2 7.0 0.00 0.00 0.00 51 1004.7
20260505184929 77 126 3.5 5.2 0.00 0.00 0.00 51 1004.7
20260505184426 78 133 0.9 0.9 0.00 0.00 0.00 51 1004.7
20260505183922 77 176 3.5 5.2 0.00 0.00 0.00 53 1004.8
20260505183419 78 114 0.9 1.7 0.00 0.00 0.00 52 1004.9
20260505182916 76 240 4.3 7.8 0.00 0.00 0.00 54 1004.8
20260505182413 76 158 2.6 3.5 0.00 0.00 0.00 53 1004.6
20260505181909 77 282 2.6 3.5 0.00 0.00 0.00 54 1005.0
20260505181407 77 223 3.5 5.2 0.00 0.00 0.00 56 1005.0
20260505180903 76 222 3.5 6.1 0.00 0.00 0.00 55 1005.0
20260505180400 75 236 0.9 0.9 0.00 0.00 0.00 57 1005.0
20260505175856 74 251 0.9 1.7 0.00 0.00 0.00 57 1005.1
20260505175353 75 84 2.6 3.5 0.00 0.00 0.00 56 1005.1
20260505174849 75 230 1.7 2.6 0.00 0.00 0.00 54 1005.3
20260505174347 75 221 2.6 3.5 0.00 0.00 0.00 56 1005.3
20260505173843 75 200 3.5 5.2 0.00 0.00 0.00 55 1005.0
20260505173339 76 310 4.3 5.2 0.00 0.00 0.00 57 1005.3
20260505172836 76 197 3.5 6.1 0.00 0.00 0.00 53 1005.5
20260505172334 77 349 2.6 3.5 0.00 0.00 0.00 52 1005.4
20260505171834 77 230 1.7 1.7 0.00 0.00 0.00 53 1005.5
20260505171331 77 272 4.3 5.2 0.00 0.00 0.00 52 1005.5
20260505170827 78 235 2.6 3.5 0.00 0.00 0.00 51 1005.7
20260505170324 77 164 2.6 2.6 0.00 0.00 0.00 55 1005.8
20260505165820 77 232 1.7 2.6 0.00 0.00 0.00 53 1006.0
20260505165315 77 145 2.6 3.5 0.00 0.00 0.00 53 1005.9
20260505164811 77 271 5.2 6.1 0.00 0.00 0.00 50 1006.0
20260505164308 79 189 5.2 6.1 0.00 0.00 0.00 50 1006.1
20260505163806 78 222 3.5 3.5 0.00 0.00 0.00 48 1006.3
20260505163305 78 239 3.5 5.2 0.00 0.00 0.00 48 1006.3
20260505162803 78 255 2.6 2.6 0.00 0.00 0.00 50 1006.3
20260505162259 77 272 3.5 5.2 0.00 0.00 0.00 49 1006.5
20260505161756 77 51 5.2 7.8 0.00 0.00 0.00 50 1006.8
20260505161253 76 282 6.1 7.0 0.00 0.00 0.00 50 1006.8
20260505160750 76 180 2.6 3.5 0.00 0.00 0.00 51 1007.0
20260505160248 75 275 2.6 2.6 0.00 0.00 0.00 53 1007.2
20260505153227 74 205 2.6 3.5 0.00 0.00 0.00 54 1007.6
20260505152724 74 302 3.5 3.5 0.00 0.00 0.00 50 1007.5
20260505152221 74 230 4.3 6.1 0.00 0.00 0.00 51 1007.6
20260505151715 73 241 0.9 1.7 0.00 0.00 0.00 54 1007.6
20260505151213 74 209 2.6 2.6 0.00 0.00 0.00 52 1008.0
20260505150709 73 228 1.7 2.6 0.00 0.00 0.00 53 1007.9
20260505150207 72 194 1.7 1.7 0.00 0.00 0.00 52 1007.9
20260505140639 68 267 0.9 1.7 0.00 0.00 0.00 56 1007.3
20260505140137 68 215 1.7 1.7 0.00 0.00 0.00 56 1007.3
20260505124550 63 234 3.5 3.5 0.00 0.00 0.00 62 1008.0